DW7572 Weather Reports


time (UTC)temp
C
wind
direction
speed
KPH
gust
KPH
rain 1hr
cm
rain 24hr
cm
rain mn
cm
humidity
%
barometer
mb
20260903175516 28 180 20.9 33.8 0.00 0.64 0.64 75 1009.3
20260903174516 28 180 25.7 46.7 0.00 0.64 0.64 73 1009.4
20260903173516 28 180 19.3 33.8 0.00 0.64 0.64 73 1009.6
20260903172516 27 180 25.7 35.4 0.00 0.64 0.64 73 1009.5
20260903171516 27 180 24.1 37.0 0.00 0.64 0.64 74 1009.5
20260903170515 26 180 22.5 38.6 0.00 0.64 0.64 75 1009.6
20260903165516 27 180 24.1 40.2 0.00 0.64 0.64 72 1009.8
20260903164516 26 180 27.4 41.8 0.00 0.64 0.64 74 1009.5
20260903163516 28 180 25.7 40.2 0.00 0.64 0.64 71 1009.5
20260903162515 28 180 29.0 43.5 0.00 0.64 0.64 70 1009.5
20260903161515 28 180 30.6 46.7 0.00 0.64 0.64 71 1009.7
20260903160516 28 180 32.2 51.5 0.00 0.64 0.64 72 1009.8
20260903155516 27 158 27.4 40.2 0.00 0.64 0.64 74 1009.9
20260903154515 27 180 27.4 41.8 0.00 0.64 0.64 74 1009.9
20260903153515 27 180 24.1 38.6 0.00 0.64 0.64 76 1009.9
20260903152516 27 180 20.9 33.8 0.00 0.64 0.64 78 1009.9
20260903151516 26 180 24.1 45.1 0.00 0.64 0.64 79 1009.9
20260903150515 26 158 19.3 35.4 0.00 0.64 0.64 81 1010.0
20260903145515 26 158 20.9 37.0 0.00 0.64 0.64 80 1010.2
20260903144516 25 158 17.7 30.6 0.00 0.64 0.64 82 1010.1
20260903143516 25 158 20.9 30.6 0.00 0.64 0.64 82 1010.0
20260903142516 25 158 17.7 27.4 0.00 0.64 0.64 83 1009.9
20260903141518 24 158 14.5 24.1 0.00 0.64 0.64 84 1010.0
20260903140538 24 158 14.5 20.9 0.00 0.64 0.64 83 1010.0
20260903135517 24 158 14.5 22.5 0.00 0.64 0.64 82 1009.8
20260903134518 24 158 16.1 24.1 0.00 0.64 0.64 83 1009.8
20260903133517 23 158 14.5 25.7 0.00 0.64 0.64 86 1009.8
20260903132518 22 158 14.5 20.9 0.00 0.64 0.64 90 1010.0
20260903131518 22 158 12.9 20.9 0.00 0.64 0.64 91 1010.1
20260903130517 22 158 9.7 16.1 0.00 0.64 0.64 92 1010.1
20260903125538 22 158 8.0 16.1 0.00 0.64 0.64 91 1010.1
20260903124517 21 158 8.0 14.5 0.00 0.64 0.64 91 1010.0
20260903123517 21 135 6.4 14.5 0.00 0.64 0.64 91 1010.1
20260903122517 21 158 6.4 12.9 0.00 0.64 0.64 90 1010.2
20260903121517 21 135 4.8 14.5 0.00 0.64 0.64 91 1009.9
20260903120517 21 135 6.4 12.9 0.00 0.64 0.64 91 1009.8
20260903115518 21 135 8.0 16.1 0.00 0.64 0.64 91 1009.8
20260903114517 21 158 9.7 16.1 0.00 0.64 0.64 91 1010.1
20260903113517 21 158 11.3 17.7 0.00 0.64 0.64 91 1010.0
20260903112517 21 158 12.9 19.3 0.00 0.64 0.64 91 1009.9
20260903111517 21 158 11.3 19.3 0.03 0.64 0.64 91 1009.8
20260903110518 21 180 12.9 19.3 0.46 0.64 0.64 91 1009.8
20260903105517 21 158 12.9 20.9 0.61 0.64 0.64 92 1009.8
20260903104517 21 158 16.1 24.1 0.64 0.64 0.64 92 1010.0
20260903103629 21 158 16.1 22.5 0.64 0.64 0.64 92 1010.3
20260903102519 21 158 11.3 19.3 0.64 0.64 0.64 92 1011.1
20260903101517 22 158 14.5 22.5 0.61 0.61 0.61 92 1011.4
20260903100518 22 158 12.9 20.9 0.18 0.18 0.18 91 1010.9
20260903095517 23 203 9.7 14.5 0.03 0.03 0.03 93 1010.6
20260903094517 23 180 11.3 16.1 0.00 0.00 0.00 95 1010.6
20260903093517 22 203 6.4 11.3 0.00 0.00 0.00 97 1010.9
20260903092517 22 203 6.4 9.7 0.00 0.00 0.00 97 1011.1
20260903091517 22 225 8.0 11.3 0.00 0.00 0.00 98 1011.2
20260903090517 22 158 11.3 16.1 0.00 0.00 0.00 97 1010.7
20260903085517 22 135 4.8 9.7 0.00 0.00 0.00 98 1010.8
20260903084537 22 135 3.2 4.8 0.00 0.00 0.00 97 1010.8
20260903083517 22 135 3.2 4.8 0.00 0.00 0.00 97 1010.9
20260903082516 22 0.0 0.0 0.00 0.00 0.00 97 1010.7
20260903081517 22 0.0 3.2 0.00 0.00 0.00 97 1010.5
20260903080517 22 0.0 1.6 0.00 0.00 0.00 97 1010.2
20260903075517 22 0.0 1.6 0.00 0.00 0.00 97 1010.3
20260903074517 22 0.0 1.6 0.00 0.00 0.00 97 1010.4
20260903073537 22 0.0 1.6 0.00 0.00 0.00 97 1010.6
20260903072538 22 135 1.6 4.8 0.00 0.00 0.00 96 1010.7
20260903071537 22 135 4.8 6.4 0.00 0.00 0.00 96 1010.7
20260903070516 22 135 3.2 6.4 0.00 0.00 0.00 96 1010.9
20260903065517 22 135 4.8 11.3 0.00 0.00 0.00 96 1010.9
20260903064556 22 135 4.8 11.3 0.00 0.00 0.00 96 1010.8
20260903063517 22 113 4.8 12.9 0.00 0.03 0.00 96 1010.7
20260903062516 22 113 3.2 6.4 0.00 0.03 0.00 96 1010.4
20260903061517 22 113 3.2 6.4 0.00 0.03 0.00 96 1010.5
20260903060516 22 113 4.8 6.4 0.00 0.05 0.00 96 1010.6
20260903055516 22 113 3.2 6.4 0.00 0.05 0.00 96 1010.6
20260903054516 22 113 3.2 6.4 0.00 0.05 0.00 95 1010.9
20260903053516 23 135 3.2 8.0 0.00 0.08 0.00 95 1010.9
20260903052536 23 113 3.2 6.4 0.00 0.10 0.00 94 1010.9
20260903051517 23 135 4.8 8.0 0.00 0.43 0.00 94 1010.7
20260903050517 23 113 4.8 9.7 0.00 1.93 0.00 94 1010.9
20260903045517 23 113 4.8 9.7 0.00 2.03 1.98 94 1010.8
20260903044518 23 135 4.8 8.0 0.00 2.06 1.98 94 1010.8
20260903043518 23 135 4.8 11.3 0.00 2.06 1.98 94 1010.9
20260903042517 23 113 6.4 11.3 0.00 2.06 1.98 94 1010.9
20260903041517 23 113 4.8 8.0 0.00 2.06 1.98 95 1010.8
20260903040518 23 113 4.8 6.4 0.00 2.06 1.98 95 1010.9
20260903035518 23 113 4.8 6.4 0.00 2.06 1.98 94 1010.7
20260903034518 23 113 3.2 6.4 0.00 2.06 1.98 94 1010.8
20260903033537 23 113 3.2 6.4 0.00 2.06 1.98 94 1011.1
20260903032518 23 113 3.2 9.7 0.00 2.06 1.98 93 1011.0
20260903031517 23 135 4.8 6.4 0.00 2.06 1.98 93 1011.1
20260903030518 23 135 3.2 4.8 0.00 2.06 1.98 93 1011.0
20260903025518 23 135 3.2 6.4 0.00 2.06 1.98 93 1011.0
20260903024517 23 135 3.2 6.4 0.00 2.06 1.98 92 1010.8
20260903023517 23 135 3.2 6.4 0.00 2.06 1.98 92 1010.8
20260903022517 23 135 3.2 4.8 0.00 2.06 1.98 92 1010.8
20260903021537 23 135 3.2 4.8 0.00 2.06 1.98 91 1010.8
20260903020517 24 135 3.2 6.4 0.00 2.06 1.98 91 1010.9
20260903015517 24 135 4.8 6.4 0.00 2.06 1.98 91 1010.7
20260903014517 24 135 3.2 4.8 0.00 2.06 1.98 91 1010.6
20260903013537 24 135 3.2 4.8 0.00 2.06 1.98 90 1010.6
20260903012517 25 135 3.2 4.8 0.00 2.06 1.98 90 1010.4
20260903011517 25 135 4.8 6.4 0.00 2.06 1.98 89 1010.3
20260903010517 25 135 3.2 4.8 0.00 2.06 1.98 87 1010.3
20260903005517 25 135 4.8 6.4 0.00 2.06 1.98 87 1010.1
20260903004517 26 135 3.2 4.8 0.00 2.06 1.98 85 1010.4
20260903003537 26 135 3.2 4.8 0.00 2.06 1.98 83 1010.5
20260903002537 27 135 3.2 6.4 0.00 2.06 1.98 80 1010.5
20260903001517 27 135 4.8 6.4 0.00 2.06 1.98 79 1010.6
20260903000517 28 135 4.8 11.3 0.00 2.06 1.98 77 1010.7
20260902235517 28 135 4.8 8.0 0.00 2.06 1.98 76 1010.8
20260902234557 28 135 4.8 11.3 0.00 2.06 1.98 75 1010.6
20260902233537 29 135 4.8 11.3 0.00 2.06 1.98 73 1010.6
20260902232516 29 135 8.0 11.3 0.00 2.06 1.98 73 1010.6
20260902231516 30 135 6.4 12.9 0.00 2.06 1.98 71 1010.7
20260902230517 30 158 6.4 11.3 0.00 2.06 1.98 71 1010.8
20260902225516 30 135 8.0 14.5 0.00 2.06 1.98 68 1010.8
20260902224517 30 135 6.4 14.5 0.00 2.06 1.98 69 1010.8
20260902223516 30 158 8.0 12.9 0.00 2.06 1.98 66 1010.8
20260902222516 30 180 9.7 16.1 0.00 2.06 1.98 67 1010.9
20260902221516 31 158 9.7 17.7 0.00 2.06 1.98 66 1010.9
20260902220516 31 180 6.4 12.9 0.00 2.06 1.98 65 1011.0
20260902215516 31 180 11.3 16.1 0.00 2.06 1.98 63 1011.0
20260902214516 31 158 11.3 17.7 0.00 2.06 1.98 63 1011.0
20260902213516 31 203 9.7 16.1 0.00 2.06 1.98 63 1011.0
20260902212517 31 180 9.7 16.1 0.00 2.06 1.98 65 1011.1
20260902211516 31 158 8.0 16.1 0.00 2.06 1.98 70 1011.3
20260902210516 31 113 3.2 9.7 0.00 2.06 1.98 71 1011.2
20260902205516 30 135 6.4 11.3 0.00 2.06 1.98 71 1011.4
20260902204517 30 135 3.2 6.4 0.00 2.06 1.98 71 1011.4
20260902203516 30 158 6.4 12.9 0.00 2.06 1.98 71 1011.6
20260902202516 30 180 3.2 9.7 0.00 2.06 1.98 70 1011.5
20260902201516 30 180 8.0 14.5 0.00 2.06 1.98 72 1011.6
20260902200516 29 225 1.6 4.8 0.00 2.06 1.98 72 1011.6
20260902195516 29 158 6.4 9.7 0.00 2.06 1.98 73 1011.9
20260902194516 30 203 4.8 8.0 0.00 2.06 1.98 71 1012.0
20260902193516 29 180 3.2 4.8 0.00 2.06 1.98 72 1012.1
20260902192516 28 225 3.2 9.7 0.00 2.06 1.98 72 1012.0
20260902191516 28 135 4.8 11.3 0.00 2.06 1.98 72 1012.1
20260902190557 28 158 1.6 4.8 0.00 2.06 1.98 75 1012.1
20260902185517 28 158 4.8 8.0 0.00 2.06 1.98 74 1012.2
20260902184516 28 203 3.2 6.4 0.00 2.06 1.98 77 1012.2
20260902183517 28 180 4.8 9.7 0.00 2.06 1.98 76 1012.4
20260902182516 27 158 3.2 4.8 0.00 2.06 1.98 77 1012.5
20260902181517 28 135 6.4 12.9 0.00 2.06 1.98 75 1012.6
20260902180516 27 90 3.2 11.3 0.00 2.06 1.98 74 1012.6